Temperature
16 17 17 17 17 17 17 17 17 17 17 18 18 18 18 18 19 18 18 18 18 18 18 18 19 18 18 18 18 18 18 18 18 18 18 18 18 18 18 18 18 18 18
16 16 16 17 17 17 17 17 17 17 18 18 18 18 18 18 18 18 18 18 18 18 18 18 18 18 18 18 18 18 18 18 18 18 18 18 18 18 18 18 18 18 18
16 16 16 16 17 17 17 17 17 17 17 18 18 18 18 19 19 18 18 18 18 18 18 18 18 18 18 18 18 18 18 18 18 18 18 18 18 18 18 18 18 18 17
15 16 16 16 16 16 16 16 17 17 17 17 17 18 18 18 19 18 18 18 18 18 18 18 18 18 18 18 18 18 18 18 18 18 18 18 18 18 18 18 18 17 17
15 15 15 16 16 16 16 16 16 17 17 17 17 17 18 18 18 18 18 18 18 18 18 18 18 18 18 18 18 18 18 17 17 17 17 17 17 17 18 18 17 17 17
14 15 15 15 15 16 16 16 16 16 16 17 17 17 17 17 18 18 18 18 18 18 18 18 18 18 18 18 18 18 18 17 17 17 17 17 17 17 17 17 17 17 17
14 14 14 15 15 15 15 16 16 16 16 16 16 16 17 17 17 18 18 18 18 18 18 18 18 18 18 18 18 18 18 18 17 17 17 17 17 17 17 17 17 17 17
14 14 14 14 14 15 15 15 15 16 16 16 16 16 16 16 17 17 18 18 18 18 18 18 18 18 18 18 18 18 18 18 18 17 17 17 17 17 17 17 17 17 17
13 14 14 14 14 14 14 15 15 15 15 16 16 16 16 17 17 17 18 18 18 18 18 18 18 18 18 18 18 18 18 18 18 17 17 17 17 17 17 17 17 17 17
13 13 13 14 14 14 14 14 14 15 15 15 16 16 16 16 17 17 17 18 18 18 18 18 18 18 18 18 18 18 18 18 18 18 17 17 17 17 17 17 17 17 16
13 13 13 13 13 13 14 14 14 14 15 15 15 15 16 16 16 16 17 17 17 18 18 18 18 18 18 18 18 18 18 18 18 18 17 17 17 17 17 17 17 16 16
13 13 13 13 13 13 13 14 14 14 14 14 15 15 15 16 16 16 16 17 17 18 18 18 18 18 18 18 18 18 18 18 18 18 18 17 17 17 17 17 17 16 16
12 12 12 12 13 13 13 13 13 14 14 14 14 15 15 15 15 16 16 16 16 17 17 17 18 18 18 18 18 17 17 18 18 18 18 17 17 17 17 17 17 16 16
12 12 12 12 12 12 13 13 13 13 13 14 14 14 14 15 15 15 15 15 16 16 16 17 17 18 18 18 17 17 17 18 18 18 18 18 17 17 17 17 17 16 16
12 12 12 12 12 12 12 12 12 13 13 13 14 14 14 14 14 15 15 15 15 15 16 17 17 18 18 17 17 17 17 17 17 17 17 18 17 17 17 17 16 16 16
12 12 12 12 12 12 12 12 12 12 12 13 13 13 14 14 14 14 15 15 15 15 15 16 17 17 17 17 17 17 17 17 17 17 17 17 17 17 17 17 16 16 16
12 12 12 12 12 12 12 12 12 12 12 12 13 13 13 13 14 14 14 14 15 15 15 15 16 16 16 16 17 17 16 17 17 17 17 17 17 17 17 17 16 16 16
12 12 12 12 12 12 11 11 11 11 12 12 12 12 13 13 13 13 14 14 14 14 15 15 16 16 16 16 16 16 16 16 16 17 17 17 17 17 17 16 16 16 16
12 12 12 12 11 11 11 11 11 11 11 12 12 12 12 13 13 13 13 13 14 14 14 14 15 15 15 15 15 15 16 16 16 16 16 16 16 16 16 16 16 16 16
11 11 11 11 11 11 11 11 11 11 11 11 12 12 12 12 12 13 13 13 13 13 14 14 14 14 15 15 15 15 15 15 15 15 16 16 16 16 16 16 16 16 15
11 11 11 11 11 11 11 11 11 11 11 11 11 11 12 12 12 12 13 13 13 13 13 13 14 14 14 14 15 15 15 15 15 15 15 15 15 15 15 15 15 15 15
11 11 11 11 11 10 10 10 11 11 11 11 11 11 11 12 12 12 12 12 12 13 13 13 13 13 14 14 14 14 14 14 14 15 15 15 15 15 15 15 15 15 15
12 12 11 11 11 11 11 10 10 11 11 11 11 11 11 11 11 12 12 12 12 12 12 12 13 13 13 14 14 14 14 14 14 15 14 14 14 14 15 14 14 14 14
12 12 11 11 11 11 11 11 11 11 11 11 11 11 11 11 11 12 12 12 12 12 12 12 12 13 13 13 13 14 14 14 14 14 14 14 14 14 14 14 14 14 14
12 12 12 11 11 11 11 11 11 11 11 11 11 11 11 11 11 11 12 12 12 12 12 12 12 13 13 13 13 13 13 13 13 13 13 13 13 13 13 13 13 13 13
13 13 12 12 12 11 11 11 11 11 11 11 11 11 11 11 11 11 12 12 12 12 12 12 12 12 13 13 13 13 13 13 13 13 13 13 13 13 13 13 13 13 13
Wind_Speed
4 4 3 4 6 7 5 4 4 5 5 6 4 5 4 4 6 7 12 17 17 14 12 10 9 8 7 6 6 6 7 8 9 11 12 12 12 12 12 11 11 10 10
4 4 4 4 4 6 7 6 6 5 5 4 4 5 6 4 4 7 13 16 18 17 14 12 11 10 9 8 8 7 7 8 10 11 12 13 13 13 12 11 11 10 9
3 3 3 3 3 6 7 6 6 4 5 4 5 5 5 5 4 4 10 13 15 17 17 15 13 12 11 10 9 9 8 9 10 12 13 13 13 13 12 11 11 10 9
7 2 2 3 3 4 4 5 6 5 5 4 4 5 4 5 5 4 5 11 13 14 17 18 17 15 13 12 11 11 10 10 11 12 13 14 14 13 13 12 11 10 8
9 5 3 3 3 2 3 5 5 5 6 6 6 5 4 5 5 6 5 6 10 13 15 18 19 18 16 14 13 13 12 12 12 13 14 14 14 14 13 12 11 10 9
8 6 4 4 3 2 3 3 4 5 5 6 7 7 6 6 5 6 6 4 4 9 13 16 16 16 18 17 15 14 14 14 14 14 14 14 15 14 14 13 12 11 9
8 6 5 4 4 3 4 4 4 5 5 5 4 4 4 5 6 6 5 5 4 4 8 14 15 14 15 18 18 16 16 16 16 16 16 16 15 15 14 13 13 12 10
7 7 7 5 4 3 4 4 3 3 3 4 4 3 3 4 6 8 6 6 6 4 4 10 12 14 15 15 17 20 18 17 17 17 17 17 16 16 15 15 14 13 11
6 5 6 6 6 4 3 4 3 3 3 3 5 4 4 5 3 4 8 8 7 5 4 4 8 11 14 16 17 22 22 20 19 19 18 18 18 17 17 16 15 14 13
4 5 5 6 6 5 4 5 3 2 3 4 4 5 5 2 2 3 4 6 7 7 6 5 5 6 10 12 16 22 25 23 21 20 19 19 19 18 18 17 16 15 14
3 4 5 5 6 4 5 5 5 4 3 4 4 3 4 4 5 4 4 4 5 6 6 5 4 4 7 8 12 20 27 26 24 22 20 20 20 19 19 18 17 16 15
4 6 6 6 6 5 5 5 5 5 4 4 4 4 4 3 4 5 5 4 4 5 6 5 5 5 6 8 11 19 26 26 25 23 21 20 20 20 20 19 18 17 16
4 6 6 6 5 5 6 5 5 5 5 4 5 4 5 5 4 4 4 4 4 3 4 5 6 5 6 7 9 19 23 26 26 25 23 21 20 20 20 20 20 19 18
3 5 6 6 6 5 6 5 4 5 5 5 5 5 4 5 5 5 5 4 4 4 4 6 4 6 5 7 9 19 19 25 26 25 24 23 21 20 20 20 20 20 19
5 5 5 6 6 5 5 5 4 5 5 5 5 6 5 5 5 5 5 5 5 5 6 6 5 5 5 6 11 15 14 22 25 25 25 24 23 21 21 20 20 20 19
6 6 5 6 6 6 5 5 5 6 6 6 5 6 5 4 4 4 5 5 6 6 5 4 6 5 5 5 11 13 13 21 24 24 24 24 23 23 22 21 21 20 20
6 7 6 6 6 5 6 6 6 6 7 7 7 6 6 5 4 4 4 5 5 5 6 5 4 4 6 6 6 8 10 11 16 23 24 24 23 23 23 22 21 21 21
6 7 7 6 6 6 6 7 7 8 7 7 7 7 6 5 5 4 4 5 5 5 6 7 4 4 6 6 6 7 6 8 10 19 23 23 23 24 23 23 23 22 22
6 7 7 7 7 6 6 7 7 8 8 8 7 7 6 6 5 3 4 4 4 5 4 5 5 4 4 4 4 5 5 5 6 12 20 21 22 24 24 24 24 23 23
6 6 6 6 6 6 5 6 8 9 9 9 8 7 6 4 4 4 4 4 4 4 4 4 5 4 4 4 4 4 5 5 5 5 9 14 18 22 23 24 25 25 25
7 6 6 6 6 6 5 6 7 9 9 9 9 8 6 5 4 4 4 4 4 3 4 4 4 4 4 4 5 5 6 5 5 5 5 7 9 10 14 20 23 25 25
6 5 5 6 6 5 3 5 6 7 8 9 9 8 7 6 5 5 7 7 6 5 5 4 4 5 6 6 5 6 6 5 4 5 6 7 8 9 9 13 20 25 26
5 4 5 5 5 5 4 5 8 7 8 8 8 7 7 7 6 5 6 7 8 10 10 6 6 7 6 5 6 6 6 6 5 5 6 7 7 9 8 14 23 26 27
4 4 5 5 5 6 4 4 8 8 8 8 7 5 5 5 4 5 6 7 6 6 6 6 7 7 5 4 5 6 6 5 3 3 4 5 5 6 6 9 23 26 27
4 5 5 5 6 5 3 3 5 6 6 7 6 5 5 4 5 7 6 7 7 6 6 7 8 8 8 8 5 4 5 5 4 3 2 4 4 3 3 6 13 24 26
5 5 6 6 6 5 5 4 3 4 6 6 6 5 3 4 5 6 5 6 6 6 6 6 6 7 7 7 9 8 7 6 4 3 4 4 4 4 3 2 6 13 18
Wind_Direction
248 242 226 213 209 205 203 206 218 231 252 271 277 274 269 229 193 167 163 170 172 172 175 179 180 180 181 177 170 168 168 165 165 161 158 155 151 147 141 139 137 134 133
245 249 238 226 218 209 204 205 212 224 240 262 278 289 292 278 215 168 168 179 179 179 181 184 187 188 188 188 184 180 178 174 171 166 163 160 156 152 150 147 144 143 140
268 259 262 256 232 218 209 203 210 215 232 253 268 275 283 290 279 209 177 177 183 188 188 188 190 191 191 193 192 187 182 179 176 172 169 166 163 161 159 158 156 154 152
334 310 277 269 255 231 206 206 204 206 217 227 246 257 269 285 285 283 216 187 182 189 195 195 192 191 192 194 194 191 188 183 181 178 175 172 169 169 168 167 166 163 160
335 334 318 291 278 256 229 228 212 201 210 213 224 237 248 259 270 278 272 225 192 181 184 197 195 191 191 193 194 194 192 189 187 184 180 177 175 175 175 175 174 172 172
333 329 316 320 323 303 263 248 240 215 209 209 217 226 227 237 247 254 263 269 224 187 182 186 190 196 195 194 195 196 195 193 192 191 188 184 182 182 183 183 182 182 183
347 333 331 326 321 310 290 268 253 238 225 205 198 222 236 238 246 250 256 263 260 220 185 176 181 186 195 201 198 196 197 197 196 195 194 191 188 188 189 190 190 191 193
358 351 348 336 322 311 301 295 270 250 250 208 188 179 206 227 238 238 244 251 252 234 190 186 189 188 184 189 200 197 197 198 198 198 198 197 194 194 195 197 198 199 200
16 5 346 344 335 334 314 301 279 263 255 241 211 202 195 210 205 223 231 237 242 241 223 194 197 196 185 185 191 198 197 196 199 201 201 200 198 199 199 201 203 204 204
23 14 356 347 341 343 336 320 323 276 258 258 248 233 238 247 191 213 236 234 238 239 234 227 214 204 195 188 187 191 194 195 197 200 202 202 202 202 203 204 206 206 206
12 29 4 346 343 345 344 337 331 313 271 255 250 247 244 246 234 217 228 227 234 238 232 229 230 221 205 192 188 189 191 193 194 198 201 203 204 205 205 206 207 208 208
1 20 3 348 345 348 338 331 323 311 294 277 265 251 240 233 221 216 225 223 220 232 230 228 229 226 209 193 198 190 189 191 193 196 199 202 204 206 207 207 208 209 208
355 0 355 337 335 334 326 328 325 309 294 283 271 256 246 244 246 239 232 238 235 232 221 230 225 222 220 202 195 185 190 192 193 195 197 200 202 206 208 208 208 208 206
342 350 341 325 324 335 332 329 315 313 316 307 289 278 256 250 246 237 227 225 237 237 227 232 225 218 215 206 196 182 192 193 194 195 196 198 201 204 206 207 208 208 206
333 338 322 323 327 330 328 336 330 323 324 309 297 286 270 255 248 243 236 222 213 224 233 225 220 220 211 204 183 188 186 195 195 195 196 198 200 202 203 205 206 205 204
310 310 324 331 331 341 349 358 339 330 326 312 297 287 284 267 257 248 243 238 223 216 234 231 217 217 208 207 190 193 196 194 196 197 198 198 199 200 202 203 203 202 200
334 339 336 327 331 347 359 356 339 332 327 319 316 312 307 293 275 261 253 246 238 222 233 247 235 223 208 210 195 200 204 192 199 200 200 199 199 199 200 200 199 198 195
335 328 328 331 341 357 1 349 338 336 327 322 315 315 312 307 292 278 266 255 248 235 225 239 238 222 217 209 200 201 201 201 195 201 200 200 199 198 198 197 195 194 192
333 327 332 342 347 352 356 350 350 342 332 321 315 315 311 313 309 301 292 274 262 256 240 236 239 226 218 206 204 209 207 202 202 198 199 201 200 198 196 194 192 190 188
322 323 339 340 342 345 354 3 354 334 323 319 317 312 310 315 316 319 309 303 293 275 261 247 240 230 218 204 193 200 210 207 207 193 194 198 200 199 195 192 189 187 184
327 335 341 335 340 335 10 13 344 327 322 317 314 313 317 310 298 291 296 306 310 289 269 255 247 238 220 201 204 198 204 202 210 190 181 189 188 195 196 193 188 184 179
303 313 323 324 325 332 359 346 333 319 311 309 312 316 314 294 296 288 275 269 262 264 265 259 257 245 234 220 204 198 198 197 213 195 189 196 186 192 193 193 188 181 177
288 301 299 304 309 310 285 308 325 315 296 296 302 306 314 321 342 336 320 295 272 256 245 247 257 254 248 231 209 204 205 203 210 187 182 204 193 196 188 187 180 177 174
293 296 291 288 290 294 270 293 322 307 296 296 296 302 308 326 1 357 329 311 293 280 258 244 247 255 256 247 219 208 205 211 207 192 178 196 189 190 180 177 177 174 172
276 282 286 280 279 279 227 258 318 306 303 307 314 330 333 333 356 350 321 306 307 301 286 268 259 260 259 247 219 190 188 189 203 200 177 171 163 149 160 177 175 172 169
266 271 275 268 264 267 207 212 285 299 308 315 318 321 335 342 339 337 317 308 309 310 316 301 278 263 252 234 217 207 197 192 184 189 179 163 152 139 137 138 166 170 168
Height
1515 1516 1516 1517 1518 1519 1519 1521 1522 1523 1525 1526 1528 1529 1530 1532 1533 1534 1535 1537 1539 1540 1541 1541 1542 1543 1544 1546 1547 1549 1550 1552 1554 1556 1558 1559 1561 1562 1564 1565 1567 1568 1569
1513 1513 1513 1514 1514 1515 1516 1517 1518 1520 1521 1523 1524 1526 1528 1529 1531 1532 1532 1535 1536 1538 1539 1540 1541 1542 1543 1544 1546 1548 1549 1551 1553 1555 1557 1559 1561 1562 1564 1565 1567 1568 1569
1511 1511 1511 1511 1511 1512 1513 1514 1515 1516 1518 1519 1520 1522 1524 1526 1528 1529 1530 1532 1534 1535 1537 1538 1539 1540 1541 1543 1544 1546 1548 1550 1552 1554 1556 1558 1560 1562 1564 1565 1567 1568 1569
1508 1508 1508 1508 1509 1509 1510 1511 1512 1513 1514 1515 1517 1519 1521 1523 1525 1526 1528 1529 1531 1532 1534 1536 1537 1538 1539 1541 1543 1544 1546 1548 1550 1553 1555 1557 1559 1561 1563 1565 1566 1568 1569
1506 1506 1505 1506 1506 1506 1507 1508 1509 1510 1511 1512 1513 1515 1517 1519 1521 1523 1525 1527 1528 1529 1531 1533 1535 1536 1537 1539 1540 1542 1544 1546 1549 1551 1553 1556 1558 1560 1562 1564 1566 1567 1568
1504 1504 1503 1503 1503 1504 1504 1505 1506 1506 1508 1509 1511 1512 1513 1515 1517 1519 1521 1523 1524 1526 1528 1530 1532 1534 1535 1536 1538 1540 1542 1544 1546 1549 1551 1554 1556 1558 1560 1562 1564 1566 1567
1503 1502 1501 1501 1501 1501 1501 1502 1502 1503 1504 1506 1508 1509 1510 1511 1512 1514 1516 1519 1521 1523 1524 1526 1528 1530 1532 1534 1535 1537 1539 1542 1544 1546 1549 1551 1554 1556 1558 1561 1563 1564 1566
1502 1500 1499 1499 1499 1499 1499 1499 1500 1500 1501 1503 1504 1506 1507 1508 1508 1509 1511 1514 1516 1519 1521 1522 1524 1526 1529 1530 1532 1534 1536 1538 1541 1544 1546 1549 1551 1554 1556 1558 1560 1562 1564
1501 1500 1498 1497 1497 1497 1497 1497 1497 1498 1498 1500 1501 1503 1504 1503 1504 1506 1507 1509 1512 1514 1517 1518 1520 1522 1524 1526 1529 1531 1533 1535 1537 1540 1543 1545 1548 1551 1553 1556 1558 1560 1562
1502 1500 1498 1497 1496 1495 1495 1495 1495 1495 1496 1496 1498 1499 1501 1501 1503 1502 1503 1504 1506 1509 1511 1514 1516 1518 1520 1522 1524 1527 1529 1531 1534 1536 1539 1542 1545 1547 1550 1552 1555 1557 1559
1502 1500 1498 1496 1495 1494 1493 1493 1493 1493 1493 1493 1494 1495 1496 1498 1499 1500 1500 1500 1501 1503 1506 1508 1510 1513 1516 1518 1520 1522 1525 1528 1530 1532 1535 1538 1541 1544 1546 1549 1551 1554 1556
1502 1500 1498 1496 1494 1493 1492 1491 1491 1490 1490 1491 1491 1492 1493 1494 1495 1496 1497 1497 1497 1499 1501 1503 1506 1508 1511 1513 1515 1518 1521 1523 1526 1528 1531 1534 1537 1539 1542 1545 1548 1550 1552
1501 1499 1497 1495 1494 1492 1491 1490 1489 1488 1488 1488 1488 1488 1489 1490 1491 1492 1493 1493 1494 1495 1496 1498 1500 1503 1505 1508 1510 1513 1515 1518 1522 1524 1527 1529 1532 1535 1538 1541 1544 1546 1549
1501 1499 1497 1495 1493 1492 1490 1488 1487 1487 1486 1486 1485 1485 1485 1486 1487 1488 1489 1490 1490 1491 1492 1492 1494 1497 1499 1502 1505 1507 1510 1514 1517 1520 1522 1525 1528 1531 1534 1537 1539 1542 1545
1500 1498 1496 1495 1493 1491 1489 1488 1486 1485 1484 1483 1483 1482 1482 1482 1482 1483 1484 1485 1487 1486 1487 1488 1490 1491 1494 1497 1499 1501 1504 1508 1512 1514 1517 1520 1523 1526 1529 1532 1535 1538 1541
1499 1498 1496 1494 1493 1491 1489 1487 1485 1484 1482 1481 1480 1479 1479 1479 1479 1479 1479 1480 1481 1482 1482 1483 1485 1487 1489 1491 1493 1496 1499 1501 1505 1508 1512 1515 1518 1521 1524 1527 1530 1533 1536
1499 1497 1495 1493 1492 1490 1488 1485 1483 1482 1480 1479 1478 1477 1476 1475 1475 1475 1475 1475 1476 1477 1477 1478 1480 1482 1483 1485 1487 1490 1492 1495 1498 1501 1505 1509 1512 1515 1519 1522 1525 1528 1532
1497 1496 1494 1492 1491 1488 1486 1484 1482 1480 1478 1477 1476 1474 1473 1472 1472 1471 1471 1471 1471 1472 1473 1473 1474 1476 1478 1480 1482 1484 1486 1489 1491 1495 1498 1502 1506 1509 1513 1516 1520 1523 1527
1496 1494 1493 1491 1489 1486 1484 1482 1480 1478 1476 1475 1473 1472 1470 1469 1468 1468 1467 1467 1467 1468 1468 1468 1469 1471 1473 1475 1477 1478 1480 1483 1485 1488 1492 1495 1499 1503 1507 1511 1514 1518 1521
1494 1493 1491 1489 1487 1484 1482 1480 1478 1476 1474 1472 1471 1470 1468 1467 1466 1465 1464 1464 1463 1463 1463 1464 1464 1465 1467 1469 1471 1473 1475 1477 1479 1482 1485 1488 1492 1496 1500 1504 1508 1511 1515
1493 1491 1489 1486 1484 1482 1480 1477 1475 1473 1471 1469 1468 1467 1466 1464 1463 1462 1461 1460 1460 1459 1459 1459 1460 1460 1462 1463 1465 1467 1469 1471 1473 1476 1478 1481 1485 1488 1492 1497 1501 1505 1509
1491 1489 1487 1484 1482 1480 1477 1475 1473 1470 1468 1466 1465 1464 1463 1462 1461 1460 1459 1457 1457 1456 1456 1455 1455 1456 1456 1458 1460 1462 1464 1466 1467 1470 1473 1475 1478 1481 1485 1489 1493 1498 1502
1489 1487 1485 1482 1480 1477 1475 1473 1471 1468 1466 1464 1463 1462 1460 1459 1458 1457 1455 1454 1453 1453 1452 1452 1451 1451 1452 1453 1455 1456 1458 1460 1461 1464 1467 1469 1472 1474 1478 1482 1487 1491 1495
1488 1486 1483 1481 1478 1476 1473 1471 1469 1466 1464 1463 1461 1460 1458 1457 1455 1454 1453 1451 1450 1449 1448 1448 1447 1447 1448 1448 1450 1451 1453 1455 1457 1459 1461 1463 1465 1468 1472 1475 1480 1484 1489
1486 1484 1482 1479 1477 1474 1472 1470 1467 1465 1463 1461 1460 1458 1456 1455 1453 1452 1450 1448 1447 1446 1445 1444 1443 1442 1443 1443 1444 1446 1448 1450 1451 1453 1455 1457 1459 1462 1466 1469 1473 1478 1482
1484 1482 1480 1477 1475 1473 1470 1468 1466 1463 1461 1459 1458 1456 1454 1453 1451 1450 1448 1446 1444 1443 1442 1440 1439 1438 1438 1438 1439 1440 1442 1444 1445 1447 1449 1452 1454 1457 1461 1463 1467 1472 1476